GFSNIL_sfc_thetae_102.txt.gz
Theta_e
321 323 322 322 322 320 320 319 317 316 317 318 318 317 315 314 311 310 308 307 306 306
314 315 315 314 315 315 316 314 316 319 317 316 315 315 315 314 311 309 308 307 307 306
308 310 311 313 312 312 312 311 311 311 312 312 313 313 312 310 310 309 308 307 306 306
304 305 305 305 305 305 306 305 306 306 306 307 308 308 309 308 308 307 307 307 305 304
299 300 300 299 300 301 301 302 302 302 302 303 304 305 305 304 304 303 302 303 303 302
296 297 296 296 296 296 297 297 298 298 298 298 299 299 301 301 300 301 301 302 301 301
294 294 294 294 294 294 294 294 294 295 294 294 295 295 294 293 295 296 298 299 299 300
292 292 292 292 292 291 291 291 292 291 292 292 292 291 293 292 292 293 293 294 294 295
291 290 290 290 289 290 290 290 290 290 289 290 289 290 291 291 291 290 290 290 291 292
288 288 288 287 287 287 288 288 288 288 288 288 289 289 290 290 290 290 290 290 289 289
286 286 286 286 286 286 287 286 286 287 287 287 287 288 289 289 290 290 289 289 289 289
285 283 284 284 285 285 285 285 286 285 285 285 286 287 288 288 288 287 287 287 288 288
283 282 282 283 283 284 284 284 284 284 285 284 284 286 287 287 288 286 286 287 287 287
281 281 282 282 282 282 282 282 282 283 285 285 285 286 286 287 286 285 284 284 285 286

GFSNIL_sfc_thetae_105.txt.gz
Theta_e
324 324 321 321 321 323 321 321 320 318 318 318 318 318 316 314 313 311 309 308 308 308
317 317 317 316 316 317 316 313 317 319 318 317 315 314 314 313 311 310 309 309 309 308
313 314 315 316 314 314 313 312 312 312 313 313 314 314 314 312 311 310 309 308 307 307
306 307 307 306 306 306 307 306 306 306 307 307 308 309 309 310 308 306 306 307 306 305
301 301 301 300 300 301 301 302 301 301 302 302 303 304 304 304 305 304 302 302 302 302
298 298 297 297 297 297 298 298 298 298 297 297 298 298 299 298 298 299 300 300 299 299
295 295 295 295 295 295 295 295 295 295 294 294 294 294 293 292 293 294 295 296 296 296
294 293 293 293 293 293 292 292 292 291 291 291 292 289 290 290 291 291 291 291 292 292
292 291 291 291 290 290 290 290 290 290 289 289 288 290 290 290 290 290 289 289 290 291
289 288 289 289 288 288 289 289 288 289 288 288 289 290 290 289 287 288 289 289 288 288
287 286 287 287 287 287 287 287 286 287 287 287 287 289 289 288 287 288 288 288 288 287
285 284 284 283 284 285 285 285 285 285 285 285 285 288 288 287 286 286 286 287 287 287
283 282 282 283 283 284 284 284 284 284 285 284 284 286 287 287 286 284 285 286 286 286
281 280 281 282 282 282 282 282 282 282 284 284 284 285 287 287 284 284 283 283 283 284

GFSNIL_sfc_thetae_111.txt.gz
Theta_e
313 317 319 319 319 319 320 320 320 320 320 319 319 318 316 314 312 311 309 309 308 308
310 312 314 314 314 313 313 312 315 315 315 314 314 313 313 311 310 309 308 307 307 307
304 305 306 306 305 304 305 305 305 305 305 305 304 304 304 303 304 302 303 304 304 305
300 300 299 299 299 299 298 298 297 297 297 297 296 297 297 297 297 297 297 297 296 297
294 294 293 292 293 293 293 293 293 293 293 293 293 293 292 291 292 291 291 292 292 292
290 290 290 290 291 291 291 290 290 290 290 289 289 288 288 289 289 289 289 289 289 289
289 289 289 289 289 288 288 288 288 287 286 286 287 286 285 286 287 287 288 288 288 288
288 288 287 287 287 286 285 285 285 285 285 285 286 286 286 285 285 285 285 285 286 286
286 285 285 285 285 285 284 284 284 284 284 284 284 289 291 289 284 284 284 283 284 284
284 283 283 284 283 283 283 283 283 283 283 283 283 288 289 289 284 283 283 283 283 285
282 282 282 282 282 282 282 281 282 281 281 280 282 287 288 288 283 282 283 284 284 284
280 279 280 279 280 281 279 279 278 280 277 276 279 286 287 286 285 284 284 284 285 284
280 278 277 279 279 279 277 279 279 279 277 276 276 284 286 286 284 283 283 284 284 284
277 277 278 277 277 275 274 275 272 275 276 276 275 278 286 287 284 284 283 283 283 284

GFSNIL_sfc_thetae_114.txt.gz
Theta_e
316 317 317 319 320 319 319 319 320 320 319 319 318 318 316 314 313 311 310 309 308 308
309 312 313 313 313 313 313 312 313 314 313 312 312 312 312 311 309 309 308 307 307 306
303 304 306 307 305 305 304 305 305 304 304 302 302 303 303 301 299 299 298 298 297 297
297 297 299 300 299 298 298 298 298 297 296 294 294 294 294 293 293 293 293 292 292 292
294 294 295 294 294 294 293 292 291 291 291 291 290 290 290 289 289 289 288 289 289 289
291 291 290 290 289 289 289 289 289 289 289 288 287 287 287 287 287 287 287 287 287 288
288 288 288 288 288 287 287 287 286 286 285 285 285 286 285 286 286 286 286 286 286 286
286 287 287 286 285 285 285 284 284 284 284 284 285 286 285 285 285 284 284 284 285 285
285 284 284 284 284 284 283 283 283 283 283 283 283 289 290 287 284 283 283 283 283 283
283 283 283 283 283 282 282 282 282 282 282 282 282 288 289 288 284 282 282 282 284 284
283 282 282 282 281 281 281 281 281 280 280 280 282 287 288 287 284 284 284 284 284 284
281 280 280 279 280 280 279 279 279 281 279 278 278 286 287 286 283 284 284 284 284 284
279 277 277 278 277 278 278 280 280 279 277 275 273 283 286 285 281 279 283 284 284 285
277 276 276 275 276 276 278 277 276 275 274 273 275 278 285 286 282 282 283 283 281 282

GFSNIL_sfc_thetae_117.txt.gz
Theta_e
316 320 318 317 316 320 319 319 319 319 319 319 318 318 316 314 313 312 310 309 308 307
312 313 313 313 314 314 313 311 313 313 311 311 311 312 311 309 308 307 306 306 304 305
305 307 308 310 306 307 306 306 306 304 303 302 302 303 303 300 299 297 295 295 294 294
299 299 300 301 301 300 300 299 298 297 296 295 294 294 292 291 291 290 290 290 289 289
294 294 294 294 294 295 294 294 293 293 291 289 289 289 289 288 288 287 287 287 287 286
291 291 291 290 291 291 291 289 288 288 287 286 286 286 286 286 286 286 286 285 285 286
288 288 289 289 288 287 286 286 286 285 285 285 285 285 285 285 284 284 285 285 285 285
286 287 286 285 285 284 284 284 284 284 283 284 285 286 285 284 284 284 284 283 283 283
285 284 284 284 283 284 283 283 283 282 282 282 285 290 290 286 284 283 283 283 282 282
284 283 283 283 283 282 282 282 282 281 282 281 284 289 289 286 283 282 282 282 282 283
283 282 282 282 281 281 281 281 280 280 280 280 284 288 287 286 283 283 283 283 283 282
282 281 280 279 279 280 279 278 278 279 278 278 279 287 287 285 281 282 282 283 283 283
280 279 278 279 278 277 277 278 279 279 278 278 275 283 286 285 281 277 281 282 283 284
278 277 277 276 275 274 275 277 274 275 275 273 274 278 284 285 283 283 282 282 279 281

GFSNIL_sfc_thetae_123.txt.gz
Theta_e
325 324 324 324 324 324 323 322 322 322 323 321 321 320 318 316 314 313 311 310 309 307
312 321 322 321 321 320 319 316 318 318 315 315 315 314 312 310 306 305 304 302 303 299
303 314 318 318 315 314 313 311 310 308 307 305 304 305 305 302 300 298 297 295 294 294
308 311 313 312 311 308 307 305 303 302 300 299 299 298 296 295 293 292 291 291 291 290
302 304 304 303 302 302 300 299 297 295 294 293 292 292 292 290 290 289 289 288 289 288
297 299 298 297 296 295 294 293 292 292 291 290 289 289 289 289 288 287 287 287 287 287
294 294 294 293 292 291 291 290 290 289 288 287 287 287 287 287 286 286 286 286 286 286
290 290 290 289 289 288 288 288 288 287 287 286 286 285 286 286 286 285 285 285 285 285
288 288 287 287 286 286 286 286 286 286 286 287 286 289 288 286 285 284 284 283 284 284
286 285 285 285 285 284 284 284 284 285 286 286 287 289 288 286 284 284 284 284 284 283
285 284 284 284 283 283 283 283 283 283 285 285 287 288 287 285 284 284 284 284 284 284
284 283 283 282 282 281 282 281 281 282 283 284 285 288 287 285 284 284 284 284 284 283
284 284 283 282 281 280 281 280 281 280 280 279 283 288 287 285 284 283 283 283 283 283
282 282 281 280 280 280 280 279 278 278 277 278 280 284 287 286 283 283 282 282 281 282